TimeEDT,TemperatureF,Dew PointF,Humidity,Sea Level PressureIn,VisibilityMPH,Wind Direction,Wind SpeedMPH,Gust SpeedMPH,PrecipitationIn,Events,Conditions,WindDirDegrees,DateUTC
12:53 AM,35.1,33.1,92,29.91,4.0,NNE,16.1,-,0.11,Rain,Rain,20,2014-03-30 04:53:00
1:38 AM,36.0,34.0,93,29.85,5.0,North,10.4,-,0.10,Rain,Rain,10,2014-03-30 05:38:00
1:50 AM,35.6,33.8,93,29.84,6.0,NNE,11.5,-,0.12,Rain,Light Rain,20,2014-03-30 05:50:00
1:53 AM,37.0,35.1,93,29.86,6.0,North,10.4,-,0.12,Rain,Light Rain,10,2014-03-30 05:53:00
2:03 AM,36.0,34.0,93,29.84,6.0,North,10.4,-,0.02,Rain,Light Rain,360,2014-03-30 06:03:00
2:53 AM,37.9,35.1,89,29.83,5.0,NNE,16.1,-,0.16,Rain,Rain,20,2014-03-30 06:53:00
3:53 AM,36.0,34.0,93,29.77,6.0,North,12.7,-,0.19,Rain,Light Rain,360,2014-03-30 07:53:00
4:42 AM,36.0,34.0,93,29.73,5.0,North,15.0,-,0.02,Rain,Light Rain,360,2014-03-30 08:42:00
4:53 AM,36.0,34.0,93,29.75,4.0,North,13.8,-,0.02,Rain,Light Rain,350,2014-03-30 08:53:00
5:53 AM,36.0,34.0,93,29.76,5.0,North,12.7,-,0.02,,Overcast,350,2014-03-30 09:53:00
6:53 AM,36.0,34.0,93,29.76,3.0,North,12.7,-,0.01,,Overcast,360,2014-03-30 10:53:00
7:00 AM,36.0,35.1,97,29.74,2.0,North,11.5,-,0.00,,Overcast,360,2014-03-30 11:00:00
7:05 AM,36.0,35.1,97,29.75,1.8,North,11.5,-,0.00,,Overcast,360,2014-03-30 11:05:00
7:16 AM,36.0,34.0,93,29.74,2.0,North,12.7,-,0.00,,Overcast,350,2014-03-30 11:16:00
7:38 AM,36.0,34.0,93,29.76,2.0,North,11.5,-,0.00,,Overcast,360,2014-03-30 11:38:00
7:48 AM,35.6,35.6,100,29.76,1.8,North,11.5,-,0.00,,Overcast,360,2014-03-30 11:48:00
7:53 AM,36.0,35.1,97,29.78,1.8,North,11.5,-,0.00,,Overcast,360,2014-03-30 11:53:00
8:27 AM,36.0,35.1,97,29.76,2.0,North,9.2,-,0.01,,Overcast,360,2014-03-30 12:27:00
8:53 AM,36.0,35.1,97,29.77,4.0,North,8.1,-,0.01,,Overcast,360,2014-03-30 12:53:00
9:53 AM,37.0,35.1,93,29.78,9.0,North,9.2,-,N/A,,Overcast,350,2014-03-30 13:53:00
10:19 AM,37.9,36.0,93,29.76,3.0,North,8.1,-,0.00,Rain,Light Rain,350,2014-03-30 14:19:00
10:53 AM,37.9,36.0,93,29.78,4.0,North,9.2,-,0.00,Rain,Light Rain,10,2014-03-30 14:53:00
11:53 AM,39.0,36.0,89,29.78,7.0,NNE,10.4,-,0.00,,Overcast,30,2014-03-30 15:53:00
12:53 PM,39.0,36.0,89,29.79,10.0,NE,9.2,-,N/A,,Overcast,40,2014-03-30 16:53:00
1:53 PM,39.9,35.1,83,29.78,10.0,NE,10.4,-,N/A,,Overcast,40,2014-03-30 17:53:00
2:53 PM,39.9,34.0,79,29.76,10.0,NNE,17.3,24.2,N/A,,Overcast,20,2014-03-30 18:53:00
3:53 PM,37.9,33.1,83,29.75,10.0,NE,13.8,-,N/A,,Overcast,50,2014-03-30 19:53:00
4:53 PM,39.0,32.0,76,29.76,10.0,NNE,20.7,26.5,N/A,,Overcast,30,2014-03-30 20:53:00
5:38 PM,37.9,30.9,76,29.75,10.0,North,17.3,28.8,N/A,,Overcast,10,2014-03-30 21:38:00
5:53 PM,37.9,30.9,76,29.78,10.0,NNE,13.8,-,N/A,,Overcast,20,2014-03-30 21:53:00
6:01 PM,37.9,30.9,76,29.75,10.0,North,18.4,-,N/A,,Overcast,10,2014-03-30 22:01:00
6:53 PM,37.0,32.0,82,29.80,10.0,NNE,16.1,-,0.00,,Overcast,20,2014-03-30 22:53:00
7:53 PM,36.0,32.0,86,29.81,10.0,North,13.8,-,N/A,,Overcast,10,2014-03-30 23:53:00
8:53 PM,36.0,30.9,82,29.85,10.0,NNE,11.5,-,N/A,,Overcast,20,2014-03-31 00:53:00
9:53 PM,35.1,30.0,82,29.87,7.0,NNE,11.5,-,0.01,Rain,Light Rain,20,2014-03-31 01:53:00
10:53 PM,33.1,30.0,89,29.89,8.0,North,11.5,-,0.01,Rain,Light Rain,360,2014-03-31 02:53:00
11:26 PM,33.1,30.0,89,29.84,10.0,North,18.4,-,0.00,,Overcast,360,2014-03-31 03:26:00
11:39 PM,33.1,30.0,89,29.83,10.0,North,20.7,-,0.00,,Overcast,360,2014-03-31 03:39:00
11:53 PM,33.1,28.9,85,29.84,7.0,North,19.6,28.8,0.00,,Overcast,360,2014-03-31 03:53:00